sat.trackr.live / text

‹ back to catalog

STARLINK-5738

NORAD 55573 · 2023-020E

PAYLOAD ACTIVE UNKNOWN

§ Identity

Operator
Country
US
Launch date
2023-02-12
Launch site
AFETR
Launch vehicle
Mass (kg)
RCS (m²)

Purposes: comms

External: N2YO · Heavens-Above · Gunter

§ Orbital elements

Epoch: 2026-05-25T02:59:31.659072Z

Period
94.27 min
Inclination
43.0002°
Eccentricity
0.0001208
Mean motion
15.27569831 rev/d
Perigee alt
482.3 km
Apogee alt
483.9 km
Semi-major
6,861.2 km
B*
7.6330e-5
RAAN
296.8544°
Arg perigee
272.0835°
Mean anomaly
87.9878°
Rev number
18,056

§ Raw data

STARLINK-57381 55573U 23020E   26145.12467198  .00001838  00000+0  76330-4 0  99902 55573  43.0002 296.8544 0001208 272.0835  87.9878 15.27569831180566

JSON: /api/v1/satellites/55573 · /tle

For live sub-satellite position, see the globe view (requires WebGL).

§ Visibility from observer

Set your observer location to see the next 7 days of passes ≥ 10°. The values pass through the URL so the page stays shareable.

No JS? Fill the form by hand. The geolocation button needs JavaScript.